Location: Muck Cross
(36.7179°N, 78.3678°W)
Time: 12:45:20
(UTC+00:00)

Explorer 11/Cluster Stage 4 - All Passes

Search period start: 26 March 2023 00:00
Search period end: 05 April 2023 00:00
Orbit: 466 x 1241 km, 28.8° (Epoch: 25 March)

Date Brightness Start Highest point End Pass type
(mag) Time Alt. Az. Time Alt. Az. Time Alt. Az.
26 Mar - 11:18:50 10° SSW 11:21:54 19° SSE 11:25:25 10° ESE daylight
26 Mar - 13:05:07 10° WSW 13:09:30 35° S 13:14:52 10° ESE daylight
26 Mar - 14:52:33 10° WSW 14:57:34 34° S 15:03:36 10° SE daylight
26 Mar - 16:41:06 10° WSW 16:45:46 21° SSW 16:51:02 10° SSE daylight
27 Mar - 11:05:11 10° SSW 11:08:13 20° SSE 11:11:37 10° ESE daylight
27 Mar - 12:51:37 10° WSW 12:55:48 34° S 13:00:53 10° ESE daylight
27 Mar - 14:39:05 10° WSW 14:43:47 31° S 14:49:27 10° SE daylight
27 Mar - 16:27:49 10° WSW 16:31:55 18° SSW 16:36:31 10° SSE daylight
28 Mar - 10:51:33 10° SSW 10:54:31 20° SSE 10:57:51 10° ESE daylight
28 Mar - 12:38:07 10° WSW 12:42:06 32° S 12:46:53 10° ESE daylight
28 Mar - 14:25:39 10° WSW 14:30:02 28° S 14:35:16 10° SE daylight
28 Mar - 16:14:41 10° SW 16:18:06 15° SSW 16:21:52 10° SSE daylight
29 Mar - 10:37:56 10° SW 10:40:50 20° SSE 10:44:05 10° ESE visible
29 Mar - 12:24:38 10° WSW 12:28:25 31° S 12:32:55 10° ESE daylight
29 Mar - 14:12:15 10° WSW 14:16:17 25° S 14:21:03 10° SE daylight
29 Mar - 16:01:48 10° SW 16:04:17 13° SSW 16:06:57 10° S daylight
30 Mar - 10:24:17 10° SW 10:27:10 21° SSE 10:30:20 10° ESE visible
30 Mar - 12:11:09 10° WSW 12:14:44 29° S 12:18:57 10° ESE daylight
30 Mar - 13:58:53 10° WSW 14:02:33 22° SSW 14:06:49 10° SE daylight
30 Mar - 15:50:05 10° SSW 15:50:28 10° SSW 15:50:53 10° SSW daylight
31 Mar - 10:10:39 10° SW 10:13:31 21° S 10:16:36 10° ESE visible
31 Mar - 11:57:40 10° WSW 12:01:04 27° S 12:04:59 10° SE daylight
31 Mar - 13:45:35 10° WSW 13:48:50 19° SSW 13:52:31 10° SSE daylight
01 Apr - 09:57:00 10° SW 09:59:51 22° S 10:02:53 10° ESE visible
01 Apr - 11:44:11 10° WSW 11:47:24 25° S 11:51:02 10° SE daylight
01 Apr - 13:32:22 10° SW 13:35:06 16° SSW 13:38:10 10° SSE daylight
02 Apr - 07:57:32 10° S 07:58:47 11° SSE 08:00:00 10° SE visible
02 Apr - 09:43:20 10° SW 09:46:13 22° S 09:49:11 10° ESE visible
02 Apr - 11:30:42 10° WSW 11:33:45 23° S 11:37:05 10° SE daylight
02 Apr - 13:19:17 10° SW 13:21:23 13° SSW 13:23:40 10° SSE daylight
03 Apr - 07:43:14 10° SSW 07:45:05 13° SSE 07:46:53 10° SE night (unlit)
03 Apr - 09:29:38 10° SW 09:32:33 23° S 09:35:31 10° ESE visible
03 Apr - 11:17:14 10° WSW 11:20:04 21° S 11:23:08 10° SE daylight
03 Apr - 13:06:34 10° SSW 13:07:40 11° SSW 13:08:49 10° S daylight
04 Apr - 07:29:03 10° SSW 07:31:23 15° SSE 07:33:37 10° SE night (unlit)
04 Apr - 09:15:56 10° SW 09:18:54 23° S 09:21:50 10° ESE visible
04 Apr - 11:03:45 10° WSW 11:06:24 19° S 11:09:12 10° SE daylight
